[[{"header":{"parameterUnit":"m.s-1","parameterCategory":1,"la1":30.2991,"la2":30.254,"lo1":-89.0895,"lo2":-89.0444,"dy":0.0017,"dx":0.0017,"nx":28,"ny":28,"refTime":"2024-04-11T03:00:00:Z","depth":0,"parameterNumber":2,"parameterNumberName":"U-component_of_WINDS"},"data":[0,0,0,0,0,0,0,0,0,0,0,0,0,0,0,0,0,0,0,0,0,0,0,0,0,0,0,0,0,0,0,0,0,0,0,0,0,0,0,0,0,0,0,0,0,0,0,0,0,0,0,0,0,0,0,0,0,0,9.7482,9.7484,0,9.7687,9.7689,9.7691,9.7576,9.7571,9.7565,9.756,9.777,9.778,9.7791,0,0,0,0,0,0,0,0,0,0,0,0,0,9.6993,9.7002,9.7482,9.7484,9.7487,9.7686,9.7689,9.7692,9.7577,9.7571,9.7564,9.7557,9.7766,9.7779,9.7792,0,0,0,0,0,0,0,0,0,0,0,0,0,9.7202,9.7005,9.7481,9.7454,9.7454,9.7686,9.7689,9.7693,9.7579,9.757,9.7562,9.7554,9.7762,9.7778,9.7794,9.8065,0,0,9.7844,9.7851,0,0,0,0,0,0,0,0,9.719,9.722,9.7455,9.7456,9.7456,9.7597,9.7593,9.7817,9.7581,9.7531,9.756,9.755,9.7719,9.7739,9.7796,9.8074,9.8083,9.7845,9.7855,9.7862,9.7867,0,0,0,0,0,0,0,9.7176,9.7211,9.7563,9.7459,9.746,9.7432,9.7452,9.7635,9.7671,9.7535,9.7527,9.7553,9.7718,9.778,9.78,9.8087,9.7845,9.7859,9.7869,9.7876,9.8598,9.8607,0,0,0,0,0,0,9.7163,9.7199,9.7556,9.7569,9.73,9.7447,9.747,9.7561,9.7668,9.7676,9.756,9.7547,9.7756,9.7781,9.7807,9.8131,9.7862,9.7877,9.7887,9.8589,9.86,9.861,0,0,0,0,0,0,9.7153,9.7196,9.7548,9.7382,9.7425,9.7465,9.7567,9.7569,9.7631,9.7687,9.7693,9.7617,9.7751,9.7784,9.8001,9.8136,9.7884,9.7899,9.8578,9.8592,9.8605,9.8782,0,0,0,0,0,0,9.714,9.7193,9.7296,9.7385,9.7434,9.774,9.7576,9.7579,9.766,9.7644,9.7742,9.775,9.7747,9.7978,9.8018,9.8154,9.7912,9.8566,9.8584,9.8601,9.8764,9.88,9.8831,0,0,0,0,0,9.7122,9.7338,9.7302,9.7346,9.7564,9.7748,9.7776,9.7767,9.7671,9.7775,9.7811,9.7747,9.8115,9.8001,9.8045,9.8189,9.8557,9.8579,9.86,9.8749,9.8793,9.883,0,0,0,0,0,0,9.7264,9.7349,9.731,9.7561,9.7648,9.7728,9.7859,9.7814,9.793,9.7911,9.7895,9.7918,9.8145,9.8188,9.8059,9.8457,9.8321,9.8352,9.842,9.8462,9.8495,9.848,9.7926,0,0,0,0,0,9.7324,9.7466,9.7533,9.7748,9.7794,9.782,9.7899,9.7885,9.7974,9.8011,9.8062,9.8152,9.8287,9.8377,9.8505,9.877,9.8789,9.889,9.8924,9.8951,9.8978,9.9121,9.9167,9.868,9.868,9.8679,0,0,9.745,9.7514,9.7605,9.7778,9.7844,9.7991,9.7851,9.8013,9.8123,9.8035,9.8244,9.8285,9.8384,9.8627,9.8736,9.867,9.9117,9.8978,9.8999,9.9012,9.9148,9.9194,9.9235,9.8694,9.8692,9.8689,0,0,9.7756,9.7819,9.8004,9.8073,9.8175,9.819,9.8235,9.8323,9.8347,9.8556,9.8494,9.8624,9.8858,9.8931,9.8999,9.9332,9.9278,9.9375,9.955,9.9689,9.9728,9.9762,9.9881,9.9924,9.9401,9.9402,9.9402,0,9.79,9.812,9.8106,9.8273,9.8351,9.8279,9.8467,9.8534,9.8673,9.8728,9.8652,9.8945,9.9006,9.9265,9.9346,9.9404,9.9454,9.9363,9.9723,9.9757,9.9789,9.9902,9.9947,9.9413,9.9411,9.941,9.9409,0,9.8292,9.8446,9.8583,9.8719,9.8812,9.8989,9.9002,9.9099,9.9077,9.9101,9.9315,9.9386,9.9527,9.9587,9.9567,9.9844,9.98,9.9724,9.9588,9.9846,9.9953,9.9996,9.9429,9.9425,9.9421,9.9419,0,0,9.8692,9.8818,9.8869,9.8929,9.9036,9.9154,9.9328,9.9466,9.9549,9.9647,9.9792,9.9993,9.9923,10.0001,9.9988,10.0111,10.0371,10.002,10.0022,10.0083,10.068,10.0736,10.0786,10.0335,10.0344,10.035,10.0671,0,9.9004,9.9308,9.9301,9.9583,9.9725,9.9659,9.981,9.9892,9.9919,10.0043,10.0073,10.0215,10.0113,10.0159,10.0278,10.0314,10.049,10.0291,10.0471,10.0477,10.0448,10.0842,10.0902,10.1201,10.0713,10.072,10.0725,0,9.9409,9.9521,9.9818,9.9903,9.9963,10.0099,10.0225,10.0345,10.0436,10.0447,10.0534,10.0502,10.0678,10.0538,10.0781,10.0645,10.0718,10.0747,10.0759,10.0775,10.0617,10.0869,10.1297,10.1342,10.079,10.0785,10.078,0,9.9672,9.9896,10.0102,10.0156,10.0262,10.0359,10.0408,10.0491,10.0574,10.0684,10.0738,10.0868,10.0939,10.104,10.1044,10.0941,10.129,10.1149,10.1304,10.1304,10.138,10.1375,10.1826,10.1428,10.1427,10.1426,10.1425,0,10.0021,10.0206,10.0222,10.0349,10.0553,10.0543,10.0746,10.0785,10.0859,10.0993,10.0943,10.107,10.1067,10.1196,10.12,10.1401,10.1433,10.1447,10.1446,10.1452,10.145,10.1499,10.1478,10.1438,10.1436,10.1433,10.1431,0,10.0349,10.0367,10.0588,10.067,10.0695,10.0842,10.0911,10.1032,10.1055,10.1224,10.1263,10.1299,10.1448,10.1462,10.1635,10.1638,10.188,10.1857,10.1849,10.1845,10.1999,10.1985,10.2497,10.2564,10.2123,10.2127,10.213,0,10.0571,10.0711,10.0808,10.0894,10.0948,10.1087,10.1172,10.1167,10.1258,10.1373,10.148,10.1624,10.1739,10.198,10.2021,10.2153,10.2132,10.2303,10.2151,10.2153,10.2134,10.2126,10.214,10.2332,10.2337,10.2341,10.2344,0,10.0963,10.0965,10.109,10.1218,10.1321,10.1421,10.1515,10.1589,10.1595,10.17,10.1851,10.194,10.2117,10.226,10.239,10.2439,10.2394,10.2391,10.2434,10.2441,10.2431,10.2438,10.1929,10.2379,10.2376,10.2373,10.2371,10.237,10.1245,10.1367,10.1454,10.1594,10.1664,10.1753,10.1871,10.1908,10.2034,10.2177,10.2167,10.2334,10.2422,10.2591,10.2651,10.2782,10.2724,10.2786,10.2802,10.2817,10.2833,10.241,10.2805,10.2804,10.2803,10.2802,10.2802,0,10.1635,10.1687,10.1816,10.195,10.206,10.2007,10.2108,10.2204,10.2352,10.2438,10.2552,10.2726,10.2865,10.2917,10.3053,10.3147,10.313,10.3183,10.3176,10.3188,10.2877,10.2826,10.3195,10.3195,10.3195,10.3195,10.3195,10.3195,10.185,10.2053,10.2066,10.2302,10.2353,10.2517,10.2579,10.2661,10.273,10.2926,10.3041,10.3074,10.3147,10.3287,10.3412,10.3424,10.3476,10.3539,10.3542,10.325,10.321,10.3172,10.3124,10.355,10.3551,10.3842,10.3845,10.3847]},{"header":{"parameterUnit":"m.s-1","parameterCategory":1,"la1":30.2991,"la2":30.254,"lo1":-89.0895,"lo2":-89.0444,"dy":0.0017,"dx":0.0017,"nx":28,"ny":28,"refTime":"2024-04-11T03:00:00:Z","depth":0,"parameterNumber":3,"parameterNumberName":"V-component_of_WINDS"},"data":[0,0,0,0,0,0,0,0,0,0,0,0,0,0,0,0,0,0,0,0,0,0,0,0,0,0,0,0,0,0,0,0,0,0,0,0,0,0,0,0,0,0,0,0,0,0,0,0,0,0,0,0,0,0,0,0,0,0,0.8089,0.8089,0,0.8126,0.8127,0.8127,0.812,0.8119,0.8119,0.8118,0.8158,0.8159,0.8161,0,0,0,0,0,0,0,0,0,0,0,0,0,0.8013,0.8014,0.8089,0.8089,0.809,0.8126,0.8127,0.8127,0.812,0.8119,0.8118,0.8118,0.8157,0.8159,0.8161,0,0,0,0,0,0,0,0,0,0,0,0,0,0.8048,0.8015,0.8089,0.8091,0.8091,0.8126,0.8127,0.8127,0.812,0.8119,0.8118,0.8117,0.8156,0.8159,0.8161,0.8197,0,0,0.8169,0.817,0,0,0,0,0,0,0,0,0.8046,0.8051,0.809,0.8091,0.8091,0.8117,0.8114,0.8151,0.8121,0.8109,0.8118,0.8117,0.8145,0.8149,0.8158,0.8199,0.8201,0.8169,0.8171,0.8172,0.8173,0,0,0,0,0,0,0,0.8043,0.8049,0.8104,0.8091,0.8091,0.809,0.8094,0.8121,0.8133,0.811,0.811,0.8114,0.8145,0.8155,0.8159,0.8201,0.8169,0.8172,0.8173,0.8174,0.8274,0.8275,0,0,0,0,0,0,0.804,0.8047,0.8103,0.8105,0.8066,0.8092,0.8096,0.811,0.8132,0.8135,0.8115,0.8114,0.8152,0.8156,0.816,0.8204,0.8172,0.8174,0.8176,0.8273,0.8274,0.8275,0,0,0,0,0,0,0.8039,0.8045,0.8101,0.8076,0.8083,0.8095,0.811,0.8111,0.8121,0.8136,0.8138,0.8123,0.8151,0.8157,0.8188,0.8205,0.8175,0.8178,0.8271,0.8273,0.8275,0.8291,0,0,0,0,0,0,0.8036,0.8045,0.8058,0.8076,0.8084,0.8128,0.8111,0.8113,0.8126,0.8124,0.8144,0.8146,0.8151,0.8184,0.819,0.8208,0.818,0.827,0.8272,0.8274,0.8289,0.8293,0.8297,0,0,0,0,0,0.8034,0.8062,0.8059,0.8066,0.8101,0.8129,0.8134,0.8138,0.8127,0.8141,0.815,0.8146,0.8202,0.8187,0.8194,0.8213,0.8269,0.8272,0.8274,0.8288,0.8293,0.8297,0,0,0,0,0,0,0.8046,0.8064,0.8061,0.8096,0.8111,0.8128,0.8146,0.8143,0.8162,0.816,0.8164,0.8169,0.8201,0.821,0.8193,0.8249,0.8234,0.8238,0.8242,0.8247,0.825,0.8248,0.8182,0,0,0,0,0,0.8053,0.8073,0.8088,0.8117,0.8125,0.8134,0.8146,0.8148,0.8164,0.817,0.8182,0.8198,0.8219,0.8233,0.8254,0.829,0.8295,0.8306,0.831,0.8313,0.8317,0.8337,0.8343,0.8284,0.8284,0.8284,0,0,0.8067,0.8079,0.8092,0.812,0.8132,0.8154,0.8139,0.8163,0.8179,0.8174,0.8205,0.8213,0.8232,0.8266,0.8281,0.8274,0.8334,0.8316,0.8319,0.8321,0.8341,0.8346,0.8351,0.8285,0.8285,0.8285,0,0,0.8104,0.8115,0.8141,0.8153,0.8171,0.8177,0.8183,0.82,0.8205,0.8236,0.8232,0.8252,0.8288,0.8302,0.8313,0.8354,0.8351,0.8361,0.8381,0.8401,0.8406,0.841,0.8425,0.8431,0.8364,0.8364,0.8364,0,0.812,0.8152,0.8155,0.8179,0.8191,0.8186,0.8213,0.8224,0.8248,0.8257,0.8248,0.8294,0.8306,0.8343,0.8353,0.8363,0.837,0.8359,0.8405,0.8409,0.8413,0.8428,0.8433,0.8366,0.8365,0.8365,0.8365,0,0.8171,0.8193,0.8212,0.8235,0.8249,0.8274,0.8281,0.8295,0.8295,0.8302,0.8333,0.8346,0.837,0.8378,0.8379,0.8416,0.8411,0.8403,0.8389,0.842,0.8434,0.8439,0.8367,0.8367,0.8366,0.8366,0,0,0.8219,0.8242,0.8248,0.8259,0.8278,0.8295,0.832,0.8342,0.8355,0.8371,0.8392,0.8423,0.8416,0.8429,0.843,0.8448,0.848,0.8438,0.8439,0.8446,0.8523,0.8529,0.8536,0.8478,0.8479,0.848,0.8522,0,0.8258,0.8302,0.8304,0.8344,0.8365,0.836,0.8382,0.8396,0.8403,0.8422,0.8429,0.8451,0.8439,0.8447,0.8464,0.8473,0.8496,0.847,0.8499,0.85,0.8495,0.8543,0.855,0.8589,0.8527,0.8528,0.8529,0,0.8311,0.8329,0.837,0.8386,0.8395,0.8414,0.8435,0.8453,0.8469,0.8472,0.8486,0.8486,0.8511,0.8494,0.853,0.8512,0.8524,0.853,0.8531,0.8535,0.8517,0.8549,0.8601,0.8608,0.8537,0.8536,0.8536,0,0.8343,0.8377,0.8406,0.8415,0.8434,0.8448,0.8456,0.8471,0.8484,0.8502,0.8511,0.8531,0.8543,0.8559,0.8564,0.8551,0.8599,0.8583,0.8604,0.8604,0.8616,0.8615,0.8671,0.8621,0.8621,0.8621,0.8621,0,0.8388,0.8414,0.842,0.8439,0.8468,0.847,0.8499,0.8506,0.8519,0.8539,0.8536,0.8555,0.8559,0.8579,0.8583,0.8612,0.8617,0.8621,0.8622,0.8622,0.8622,0.8631,0.8629,0.8622,0.8622,0.8622,0.8621,0,0.8429,0.8434,0.8466,0.8481,0.8485,0.8506,0.8519,0.8537,0.8542,0.8568,0.8574,0.8583,0.8606,0.8612,0.8639,0.8642,0.8677,0.8675,0.8671,0.8672,0.8693,0.8691,0.8758,0.8767,0.871,0.871,0.8711,0,0.8458,0.8477,0.8494,0.8507,0.8517,0.8537,0.855,0.8553,0.8567,0.8586,0.8602,0.8624,0.8642,0.8679,0.8689,0.871,0.8709,0.8731,0.8712,0.8712,0.871,0.871,0.8712,0.8735,0.8735,0.8736,0.8736,0,0.8509,0.851,0.8529,0.8549,0.8565,0.8581,0.8596,0.8607,0.8612,0.8627,0.8651,0.8665,0.8692,0.8715,0.8736,0.8745,0.8742,0.8742,0.8748,0.8749,0.8747,0.8749,0.8682,0.8741,0.874,0.874,0.874,0.8739,0.8545,0.8563,0.8577,0.8599,0.861,0.8624,0.8642,0.8649,0.8668,0.8691,0.8691,0.8717,0.8732,0.876,0.877,0.879,0.8784,0.8792,0.8795,0.8797,0.8799,0.8742,0.8794,0.8794,0.8794,0.8794,0.8794,0,0.8597,0.8606,0.8625,0.8647,0.8663,0.8658,0.8674,0.8689,0.8711,0.8725,0.8743,0.877,0.8791,0.8802,0.8823,0.8837,0.8836,0.8843,0.8843,0.8845,0.8804,0.8797,0.8843,0.8843,0.8843,0.8843,0.8843,0.8843,0.8626,0.8656,0.8659,0.8694,0.8703,0.8727,0.8737,0.875,0.8762,0.8792,0.8809,0.8816,0.8829,0.8851,0.8871,0.8873,0.8882,0.8889,0.8891,0.8853,0.8848,0.8843,0.8837,0.8891,0.8891,0.8931,0.8931,0.8932]}]]